Hourly Data Report for October 15, 2019

All times are specified in Local Standard Time (LST). Add 1 hour to adjust for Daylight Saving Time where and when it is observed.

WOODSTOCK NEWBRIDGE
NEW BRUNSWICK
Current Station Operator: ECCC - MSC

46°09'08.000" N
67°32'34.000" W
154.00 m
8105603
71606
EWD

Download Data

Hourly Data (October 2019)
Hourly Data Report for October 15, 2019
TIME Temp Definition
°C
Dew Point Definition
°C
Rel Hum Definition
%
Wind Dir Definition
10's deg

Wind Spd Definition
km/h
Visibility Definition
km
Stn Press Definition
kPa
Hmdx Definition


Wind Chill Definition


Weather Definition


00:00 11.6 9.8 89 17 7   99.65     LegendNANA
01:00 10.2 7.4 83 29 8   99.73     LegendNANA
02:00 9.6 6.6 81 29 5   99.73     LegendNANA
03:00 9.1 6.6 84 27 5   99.73     LegendNANA
04:00 8.3 4.4 77 31 3   99.69     LegendNANA
05:00 7.9 5.5 85 24 3   99.73     LegendNANA
06:00 7.7 5.8 88 27 6   99.73     LegendNANA
07:00 7.7 5.3 85 27 7   99.78     LegendNANA
08:00 7.4 4.5 82 28 6   99.85     LegendNANA
09:00 8.8 3.7 70 30 4   99.87     LegendNANA
10:00 10.1 2.9 61 30 9   99.85     LegendNANA
11:00 11.5 2.3 53 26 15   99.83     LegendNANA
12:00 12.4 1.3 47 28 11   99.82     LegendNANA
13:00 13.1 0.6 43 26 16   99.78     LegendNANA
14:00 13.4 -0.6 38 26 13   99.75     LegendNANA
15:00 13.6 -0.5 38 29 11   99.76     LegendNANA
16:00 13.0 -1.1 38 27 11   99.75     LegendNANA
17:00 11.9 -0.8 42 26 12   99.77     LegendNANA
18:00 8.3 0.0 56 27 4   99.84     LegendNANA
19:00 4.8 0.2 72 25 4   99.89     LegendNANA
20:00 3.2 0.2 81 0 1   99.92     LegendNANA
21:00 1.7 0.0 88 0 1   99.96     LegendNANA
22:00 0.3 -0.8 92 0 1   99.99     LegendNANA
23:00 0.1 -1.0 93   0   100.01     LegendNANA

Notes on Data Quality.

Legend

  • E = Estimated
  • M = Missing
  • NA = Not Available
Date modified: